Weather History for KAIA - September, 2012

Change the Weather History Date:

Friday, September 14, 2012

  Actual Average Record
Temperature  
Mean Temperature 57 °F 60 °F  
Max Temperature 81 °F 77 °F 94 °F (1955)
Min Temperature 33 °F 44 °F 26 °F (1961)
Degree Days  
Heating Degree Days 8 6  
Month to date heating degree days 53 57  
Since 1 July heating degree days 64 94  
Cooling Degree Days 0 1  
Month to date cooling degree days 49 30  
Year to date cooling degree days 958 553  
Growing Degree Days 6 (Base 50)    
Moisture  
Dew Point 32 °F    
Average Humidity 56    
Maximum Humidity 100    
Minimum Humidity 12    
Precipitation  
Precipitation 0.00 in 0.05 in 0.51 in (1982)
Month to date precipitation T 0.72  
Year to date precipitation 5.81 13.13  
Sea Level Pressure  
Sea Level Pressure 30.29 in    
Wind  
Wind Speed 6 mph (SSW)    
Max Wind Speed 15 mph    
Max Gust Speed 18 mph    
Visibility 9 miles    
Events      
T = Trace of Precipitation, MM = Missing Value Source: NWS Daily Summary

Daily Weather History Graph

Daily Weather History Graph

Search for Another Location

Airport or City:

Trip Planner

Search our weather history database for the weather conditions in past years. The results will help you decide how hot, cold, wet, or windy it might be!

Date:

Astronomy

Sep. 14, 2012 Rise Set
Actual Time 6:30 AM MDT 7:01 PM MDT
Civil Twilight 6:02 AM MDT 7:29 PM MDT
Nautical Twilight 5:29 AM MDT 8:02 PM MDT
Astronomical Twilight 4:55 AM MDT 8:36 PM MDT
Moon 4:56 AM MDT (9/14) 5:59 PM MDT (9/14)
Length of Visible Light 13h 26m
Length of Day
12h 30m
Waning Crescent, 2% of the Moon is Illuminated
Sep 14
Waning Crescent
Sep 15
New
Sep 22
First Quarter
Sep 29
Full
Oct 8
Last Quarter

Hourly Weather History & Observations

Time (MDT) Temp. Windchill Dew Point Humidity Pressure Visibility Wind Dir Wind Speed Gust Speed Precip Events Conditions
12:53 AM 39.9 °F 35.8 °F 37.9 °F 93% 30.37 in 7.0 mi WSW 5.8 mph - N/A   Clear
1:53 AM 42.1 °F 38.4 °F 39.0 °F 89% 30.36 in 10.0 mi WNW 5.8 mph - N/A   Clear
2:53 AM 39.0 °F - 36.0 °F 89% 30.35 in 8.0 mi Calm Calm - N/A   Clear
3:53 AM 39.0 °F - 36.0 °F 89% 30.35 in 10.0 mi Calm Calm - N/A   Clear
4:53 AM 34.0 °F 28.8 °F 33.1 °F 96% 30.35 in 6.0 mi West 5.8 mph - N/A   Clear
5:53 AM 34.0 °F 28.0 °F 32.0 °F 92% 30.37 in 10.0 mi West 6.9 mph - N/A   Clear
6:53 AM 33.1 °F 28.7 °F 30.9 °F 92% 30.40 in 5.0 mi WNW 4.6 mph - N/A   Clear
7:53 AM 45.0 °F - 39.9 °F 82% 30.40 in 5.0 mi Calm Calm - N/A   Haze
8:53 AM 55.9 °F - 39.9 °F 55% 30.38 in 10.0 mi Calm Calm - N/A   Clear
9:53 AM 66.0 °F - 32.0 °F 28% 30.38 in 10.0 mi ESE 6.9 mph - N/A   Clear
10:53 AM 71.1 °F - 28.0 °F 20% 30.36 in 10.0 mi SE 6.9 mph - N/A   Clear
11:53 AM 73.0 °F - 28.9 °F 20% 30.34 in 10.0 mi Variable 6.9 mph - N/A   Clear
12:53 PM 77.0 °F - 28.9 °F 17% 30.31 in 10.0 mi Variable 6.9 mph - N/A   Clear
1:53 PM 78.1 °F - 28.0 °F 16% 30.27 in 10.0 mi Variable 4.6 mph - N/A   Clear
2:53 PM 80.1 °F - 27.0 °F 14% 30.25 in 10.0 mi Variable 5.8 mph - N/A   Clear
3:53 PM 80.1 °F - 27.0 °F 14% 30.22 in 10.0 mi SSW 8.1 mph - N/A   Clear
4:53 PM 79.0 °F - 23.0 °F 13% 30.22 in 10.0 mi SSW 9.2 mph - N/A   Clear
5:53 PM 78.1 °F - 23.0 °F 13% 30.21 in 10.0 mi SSW 6.9 mph - N/A   Clear
6:53 PM 66.9 °F - 30.0 °F 25% 30.22 in 10.0 mi South 6.9 mph - N/A   Clear
7:53 PM 57.0 °F - 33.1 °F 40% 30.22 in 10.0 mi SSE 10.4 mph - N/A   Clear
8:53 PM 52.0 °F - 35.1 °F 53% 30.21 in 10.0 mi North - - N/A   Clear
9:53 PM 52.0 °F - 35.1 °F 53% 30.19 in 10.0 mi SSE 10.4 mph - N/A   Clear
10:53 PM 48.9 °F - 36.0 °F 61% 30.17 in 10.0 mi South 6.9 mph - N/A   Clear
11:53 PM 48.9 °F - 35.1 °F 59% 30.16 in 10.0 mi SSE 4.6 mph - N/A   Clear